Regional Weather Roundup
Issued by NWS Nashville, TN

Home | Current Version | Previous Version | Text Only | Print | Product List | Glossary On
Versions: 1 2 3 4 5 6 7 8 9 10 11 12 13 14 15 16 17 18 19 20 21 22 23 24 25 26 27 28 29 30 31 32 33 34 35 36 37 38 39 40 41 42 43 44 45 46 47 48 49 50
000
ASUS44 KOHX 261310
RWROHX
MIDDLE TENNESSEE HOURLY WEATHER ROUNDUP
NATIONAL WEATHER SERVICE NASHVILLE TN
800 AM CDT SUN MAR 26 2017

NOTE: "FAIR" INDICATES FEW OR NO CLOUDS BELOW 12,000 FEET WITH
NO SIGNIFICANT WEATHER AND/OR OBSTRUCTIONS TO VISIBILITY.

* THESE REPORTS ARE NOT UNDER NWS QUALITY CONTROL AND MAY NOT
  REPORT WEATHER SUCH AS PRECIPITATION AND FOG.


TNZ005>011-023>034-057-059-062>066-078-080-261400
...NORTHERN MIDDLE TENNESSEE...

CITY           SKY/WX    TMP DP  RH WIND       PRES   REMARKS
CLARKSVILLE    CLOUDY    59  54  83 S9        29.97R
CROSSVILLE     CLOUDY    57  53  86 VRB7      30.06R
GALLATIN       CLOUDY    59  57  94 S7        30.03R
LIVINGSTON     CLOUDY    60  53  77 S10       30.02
NASHVILLE      CLOUDY    59  57  93 S8        30.00R
PORTLAND       CLOUDY    57  57 100 S10G16    29.99S
SMYRNA         CLOUDY    59  57  94 S7        30.03R
SPARTA         CLOUDY    61  55  82 S10       30.01R
SPRINGFIELD    CLOUDY    59  57  94 S7        29.98R
WEST NASHVILLE CLOUDY    57  55  94 S6        30.00R
$$
TNZ056-058-060-061-075>077-079-093>097-261400
...SOUTHERN MIDDLE TENNESSEE...

CITY           SKY/WX    TMP DP  RH WIND       PRES   REMARKS
COLUMBIA       PTSUNNY  N/A N/A N/A S8        29.99R
FAYETTEVILLE   CLOUDY    59  57  94 S8        30.03R
MCMINNVILLE    PTSUNNY   61  55  82 S7        30.03R
SHELBYVILLE    CLOUDY   N/A N/A N/A MISG      30.03R
TULLAHOMA      CLOUDY    57  55  94 S8        30.04R
WINCHESTER     PTSUNNY   59  55  88 S7        30.04R
$$


...KEY TO REMARKS...
VSB - VISIBILITY IN MILES
WCI - WIND CHILL INDEX
HX  - HEAT INDEX




USA.gov is the U.S. government's official web portal to all federal, state and local government web resources and services.